FW9022 Weather Reports


Display with metric or nautical units.
time (UTC)temp
F
wind
direction
speed
MPH
gust
MPH
rain 1hr
in
rain 24hr
in
rain mn
in
humidity
%
barometer
mb
20260505085827 45 233 1.0 3.0 0.00 0.00 0.00 89 1014.7
20260505084825 45 150 0.0 0.0 0.00 0.00 0.00 89 1014.7
20260505083820 46 150 0.0 0.0 0.00 0.00 0.00 89 1014.7
20260505082834 46 150 0.0 0.0 0.00 0.00 0.00 88 1014.7
20260505081828 46 150 0.0 0.0 0.00 0.00 0.00 88 1014.7
20260505080838 47 150 0.0 0.0 0.00 0.00 0.00 87 1014.5
20260505075818 47 150 0.0 0.0 0.00 0.00 0.00 87 1015.1
20260505074853 48 149 0.0 0.0 0.00 0.00 0.00 86 1015.1
20260505073829 48 150 0.0 0.0 0.00 0.00 0.00 86 1015.0
20260505072823 48 150 0.0 0.0 0.00 0.00 0.00 85 1014.9
20260505071834 49 150 0.0 0.0 0.00 0.00 0.00 85 1014.9
20260505070838 49 150 0.0 0.0 0.00 0.00 0.00 83 1014.9
20260505065822 50 150 0.0 1.0 0.00 0.00 0.00 83 1015.3
20260505064835 50 150 1.0 3.0 0.00 0.00 0.00 82 1015.3
20260505063831 51 204 0.0 2.0 0.00 0.00 0.00 81 1015.3
20260505062845 52 230 0.0 0.0 0.00 0.00 0.00 80 1015.0
20260505061822 52 231 0.0 1.0 0.00 0.00 0.00 79 1015.0
20260505060848 52 231 0.0 1.0 0.00 0.00 0.00 78 1015.3
20260505055827 53 230 0.0 2.0 0.00 0.00 0.00 76 1015.2
20260505054826 55 206 0.0 2.0 0.00 0.00 0.00 73 1015.2
20260505053820 56 200 0.0 1.0 0.00 0.00 0.00 71 1015.0
20260505052855 57 200 0.0 0.0 0.00 0.00 0.00 68 1014.8
20260505051828 60 200 0.0 0.0 0.00 0.00 0.00 64 1014.8
20260505050837 61 200 0.0 0.0 0.00 0.00 0.00 62 1014.8
20260505040840 64 190 0.0 5.0 0.00 0.00 0.00 53 1014.9
20260505035845 64 188 1.0 3.0 0.00 0.00 0.00 53 1014.9
20260505034818 64 236 2.0 6.0 0.00 0.00 0.00 53 1014.9
20260505033832 63 182 1.0 2.0 0.00 0.00 0.00 55 1015.1
20260505032826 63 158 1.0 10.0 0.00 0.00 0.00 56 1015.4
20260505031825 61 213 1.0 7.0 0.00 0.00 0.00 58 1015.4
20260505030849 61 181 0.0 2.0 0.00 0.00 0.00 60 1015.7
20260505025829 62 181 0.0 2.0 0.00 0.00 0.00 60 1015.5
20260505024827 64 161 0.0 2.0 0.00 0.00 0.00 57 1015.5
20260505023820 64 153 0.0 3.0 0.00 0.00 0.00 55 1015.3
20260505022834 65 152 1.0 3.0 0.00 0.00 0.00 52 1015.2
20260505021828 65 219 3.0 5.0 0.00 0.00 0.00 52 1015.2
20260505020836 65 226 0.0 6.0 0.00 0.00 0.00 53 1015.4
20260505015836 65 244 0.0 7.0 0.00 0.00 0.00 53 1015.0
20260505014830 65 210 1.0 4.0 0.00 0.00 0.00 54 1015.0
20260505013827 65 220 0.0 4.0 0.00 0.00 0.00 54 1014.8
20260505012821 65 211 0.0 5.0 0.00 0.00 0.00 53 1014.5
20260505011834 65 225 1.0 3.0 0.00 0.00 0.00 54 1014.5
20260505010858 66 212 0.0 6.0 0.00 0.00 0.00 54 1014.1
20260505005837 66 238 3.0 7.0 0.00 0.00 0.00 53 1014.0
20260505004831 67 233 3.0 6.0 0.00 0.00 0.00 52 1014.0
20260505003845 67 153 2.0 9.0 0.00 0.00 0.00 52 1013.5
20260505002817 68 207 1.0 5.0 0.00 0.00 0.00 51 1013.4
20260505001855 68 222 0.0 5.0 0.00 0.00 0.00 50 1013.4
20260505000858 69 279 0.0 6.0 0.00 0.00 0.00 49 1013.0
20260504235836 70 232 1.0 8.0 0.00 0.00 0.00 48 1013.7
20260504234831 70 211 1.0 7.0 0.00 0.00 0.00 47 1013.7
20260504233828 71 134 1.0 7.0 0.00 0.00 0.00 47 1013.5
20260504232821 71 220 1.0 8.0 0.00 0.00 0.00 46 1013.3
20260504231835 72 215 2.0 14.0 0.00 0.00 0.00 45 1013.3
20260504230844 72 138 1.0 11.0 0.00 0.00 0.00 45 1012.4
20260504225842 72 188 5.0 13.0 0.00 0.00 0.00 44 1012.4
20260504224835 72 156 1.0 7.0 0.00 0.00 0.00 44 1012.4
20260504223829 73 227 3.0 9.0 0.00 0.00 0.00 43 1012.5
20260504222826 73 213 3.0 6.0 0.00 0.00 0.00 42 1012.5
20260504221819 73 125 5.0 23.0 0.00 0.00 0.00 42 1012.5
20260504220903 73 213 6.0 19.0 0.00 0.00 0.00 41 1012.4
20260504215820 74 136 5.0 14.0 0.00 0.00 0.00 41 1012.3
20260504214818 74 213 5.0 13.0 0.00 0.00 0.00 40 1012.3
20260504213833 75 202 4.0 14.0 0.00 0.00 0.00 39 1012.3
20260504212828 75 251 3.0 11.0 0.00 0.00 0.00 38 1012.4
20260504211827 75 115 2.0 17.0 0.00 0.00 0.00 38 1012.4
20260504210912 75 159 4.0 18.0 0.00 0.00 0.00 37 1013.2
20260504205830 76 103 4.0 14.0 0.00 0.00 0.00 35 1013.3
20260504204824 76 146 5.0 11.0 0.00 0.00 0.00 34 1013.3
20260504203842 76 157 1.0 9.0 0.00 0.00 0.00 33 1013.5
20260504202836 76 132 4.0 11.0 0.00 0.00 0.00 32 1013.6
20260504201831 76 225 2.0 15.0 0.00 0.00 0.00 33 1013.6
20260504200836 76 136 3.0 7.0 0.00 0.00 0.00 31 1013.8
20260504195819 75 301 5.0 9.0 0.00 0.00 0.00 30 1014.1
20260504194833 76 133 3.0 7.0 0.00 0.00 0.00 31 1014.1
20260504193827 75 84 1.0 9.0 0.00 0.00 0.00 32 1014.2
20260504192841 75 73 0.0 5.0 0.00 0.00 0.00 33 1014.5
20260504191818 75 123 2.0 8.0 0.00 0.00 0.00 35 1014.5
20260504190903 74 110 1.0 9.0 0.00 0.00 0.00 37 1014.8
20260504185821 74 5 0.0 10.0 0.00 0.00 0.00 36 1014.8
20260504184819 74 74 1.0 7.0 0.00 0.00 0.00 38 1014.8
20260504183833 74 254 1.0 5.0 0.00 0.00 0.00 38 1015.0
20260504182827 73 74 1.0 6.0 0.00 0.00 0.00 39 1015.3
20260504181821 73 167 2.0 9.0 0.00 0.00 0.00 38 1015.3
20260504180850 73 98 2.0 5.0 0.00 0.00 0.00 39 1015.4
20260504175830 72 76 2.0 3.0 0.00 0.00 0.00 41 1015.4
20260504174825 72 18 2.0 6.0 0.00 0.00 0.00 40 1015.4
20260504173823 72 111 1.0 3.0 0.00 0.00 0.00 41 1015.7
20260504172818 72 33 1.0 3.0 0.00 0.00 0.00 40 1015.1
20260504171833 71 72 1.0 3.0 0.00 0.00 0.00 43 1015.1
20260504170837 70 36 2.0 3.0 0.00 0.00 0.00 43 1015.4
20260504150835 63 46 1.0 3.0 0.00 0.00 0.00 49 1017.4
20260504140838 60 205 0.0 1.0 0.00 0.00 0.00 56 1017.5